ARIANE 2 DEB, 28566

Orbit data source: Space-Track

ARIANE 2 DEB, 28566 is space debris in HEO originally from a launch on Fri, 27 Jan 1989 UTC launched from the French Guiana (FRGUI). Debris objects in space refer to the collection of defunct objects orbiting the Earth. Examples of debris include non-operational satellites, rocket bodies, and fragments generated from explosions, collisions, or faulty payload assembly.

Loading next visibility...
Identifier
28566, 1989-006AH
Orbit
HEO
Country
Flag of FRFR
Related business
Manufacturer
EADS/LV
Mission
Spacecraft
Bus & Motor
Unknown
Mass
Unknown
Launch date (UTC)
1989-01-27 (37 years ago)
Launch vehicle
Unknown
Launch site
French Guiana (FRGUI)
Object type
Payload
Rocket body
Debris
Shape & HBR
Unknown shape, 1.1 m
Radar Cross Section
Medium (>0.1 m² and <1 m²)

Expand to show TLE details & history
Last TLE update: 5 months ago

TLE from 5 months ago
0 ARIANE 2 DEB
1 28566U 89006AH  25193.35102337  .00022865  00000-0  63115+0 0  9992
2 28566   7.2067 316.6329 7082492 344.4486   1.8176  2.29022958104744
Epoch: 2025-07-12T08:25Z
TLE epoch observation values (Epoch: 2025-07-12T08:25:28.419Z)
Latitude
-0.00004°
Longitude
-100.18273°
Altitude
797.948 km
Speed
9.73 km/s
True Right ascension
21h 06m 42s
True Declination
0° 00' 00"
Sunlit
Object was in full shadow at epoch
Visualization orbit readout
Latitude
Unknown
Longitude
Unknown
Altitude
Unknown
Speed
Unknown
Apparent Right ascension
Unknown
Apparent Declination
Unknown
Sunlit
N/A
Visualization observer readout
Local Sidereal Time
13:22:52
Azimuth
Unknown
Elevation
Unknown
Doppler factor
Unknown
Orbital elements
Apogee altitude
35,160.967 km
Perigee altitude
716.3 km
Semi-major axis
24,316.771 km
Eccentricity
0.70825
Inclination
7.2067°
RAAN
316.6329°
Arg. of periapsis
344.4486°
True anomaly
14.93344°
Mean anomaly
1.8176°
Eccentric anomaly
6.20061°
Mean motion
0.57238 °/min
Orbital period
628.95 mins
BSTAR
0.63115
Loading maneuver chart data...
Computing Atmospheric mass density...
Loading historical data...
Loading historical data...
Loading historical data...
Loading historical data...
Loading historical data...
Loading historical data...
Loading historical data...

Documentation

Showing up to 5 results
|